Location: Umburanas
(4.5000°S, 37.9667°W)
Time: 19:02:44
(UTC+00:00)

Cosmos 1607 - Pass Details

Date: 19 November 2019
Orbit: 928 x 974 km, 65.0° (Epoch: 10 December)

Event Time Altitude Azimuth Distance (km) Brightness Sun altitude
Rises 21:06:33 0° 339° (NNW) 3,621 7.0 -10.0°
Reaches altitude 10° 21:09:05 10° 339° (NNW) 2,685 6.3 -10.6°
Maximum altitude 21:15:23 90° 49° (NE) 972 4.0 -12.1°
Drops below altitude 10° 21:21:47 10° 158° (SSE) 2,719 6.3 -13.6°
Sets 21:24:21 0° 158° (SSE) 3,670 7.0 -14.2°
